TimeCST,TemperatureF,Dew PointF,Humidity,Sea Level PressureIn,VisibilityMPH,Wind Direction,Wind SpeedMPH,Gust SpeedMPH,PrecipitationIn,Events,Conditions,WindDirDegrees,DateUTC
12:13 AM,46.4,42.8,87,29.76,7.0,East,15.0,19.6,N/A,,Overcast,80,2012-11-10 06:13:00
12:32 AM,46.4,42.8,87,29.76,7.0,East,15.0,19.6,N/A,,Overcast,90,2012-11-10 06:32:00
12:53 AM,46.4,42.8,87,29.74,7.0,East,12.7,18.4,N/A,,Overcast,90,2012-11-10 06:53:00
1:12 AM,46.4,42.8,87,29.74,7.0,East,10.4,18.4,N/A,,Overcast,90,2012-11-10 07:12:00
1:32 AM,46.4,42.8,87,29.72,7.0,East,12.7,-,N/A,,Overcast,90,2012-11-10 07:32:00
1:52 AM,46.4,42.8,87,29.70,7.0,East,13.8,21.9,N/A,,Overcast,90,2012-11-10 07:52:00
2:12 AM,48.2,42.8,82,29.70,7.0,East,16.1,24.2,N/A,,Overcast,100,2012-11-10 08:12:00
2:33 AM,48.2,42.8,82,29.70,7.0,East,15.0,20.7,N/A,,Overcast,100,2012-11-10 08:33:00
2:53 AM,48.2,42.8,82,29.69,7.0,East,13.8,-,N/A,,Overcast,100,2012-11-10 08:53:00
3:12 AM,48.2,44.6,87,29.68,7.0,East,12.7,19.6,N/A,,Overcast,100,2012-11-10 09:12:00
3:33 AM,48.2,44.6,87,29.66,7.0,East,16.1,20.7,N/A,,Overcast,100,2012-11-10 09:33:00
3:53 AM,48.2,44.6,87,29.65,7.0,East,13.8,-,N/A,,Overcast,100,2012-11-10 09:53:00
4:12 AM,48.2,44.6,87,29.65,5.0,ESE,13.8,19.6,N/A,,Haze,110,2012-11-10 10:12:00
4:33 AM,48.2,44.6,87,29.64,5.0,ESE,12.7,19.6,N/A,,Overcast,110,2012-11-10 10:33:00
4:53 AM,48.2,44.6,87,29.63,5.0,ESE,10.4,-,N/A,,Overcast,110,2012-11-10 10:53:00
5:12 AM,48.2,44.6,87,29.62,5.0,ESE,11.5,17.3,N/A,,Overcast,120,2012-11-10 11:12:00
5:32 AM,50.0,46.4,87,29.61,5.0,ESE,12.7,16.1,N/A,,Overcast,120,2012-11-10 11:32:00
5:53 AM,50.0,46.4,87,29.60,5.0,ESE,12.7,-,N/A,,Overcast,120,2012-11-10 11:53:00
6:12 AM,51.8,46.4,82,29.59,7.0,ESE,11.5,18.4,N/A,,Mostly Cloudy,120,2012-11-10 12:12:00
6:32 AM,51.8,48.2,88,29.59,7.0,SE,10.4,-,N/A,,Scattered Clouds,130,2012-11-10 12:32:00
6:53 AM,53.6,48.2,82,29.59,7.0,SE,12.7,19.6,N/A,,Overcast,130,2012-11-10 12:53:00
7:12 AM,53.6,50.0,88,29.59,7.0,SE,12.7,-,N/A,,Overcast,130,2012-11-10 13:12:00
7:32 AM,53.6,48.2,82,29.59,7.0,SE,9.2,-,N/A,,Overcast,130,2012-11-10 13:32:00
7:53 AM,53.6,50.0,88,29.59,5.0,SE,13.8,19.6,N/A,,Overcast,130,2012-11-10 13:53:00
8:12 AM,53.6,50.0,88,29.58,5.0,SE,13.8,20.7,N/A,,Overcast,130,2012-11-10 14:12:00
8:32 AM,53.6,51.8,94,29.57,5.0,SE,16.1,19.6,N/A,,Overcast,140,2012-11-10 14:32:00
8:53 AM,53.6,51.8,94,29.56,5.0,SE,13.8,19.6,N/A,,Overcast,140,2012-11-10 14:53:00
9:12 AM,53.6,51.8,94,29.56,5.0,SE,15.0,21.9,N/A,,Overcast,140,2012-11-10 15:12:00
9:32 AM,55.4,51.8,88,29.55,7.0,SSE,15.0,21.9,N/A,,Overcast,150,2012-11-10 15:32:00
9:53 AM,57.2,53.6,88,29.54,10.0,SSE,17.3,-,N/A,,Scattered Clouds,150,2012-11-10 15:53:00
10:12 AM,60.8,53.6,77,29.53,10.0,SSE,15.0,24.2,N/A,,Clear,160,2012-11-10 16:12:00
10:32 AM,62.6,53.6,72,29.52,10.0,South,13.8,24.2,N/A,,Clear,170,2012-11-10 16:32:00
10:53 AM,64.4,53.6,68,29.51,10.0,South,19.6,26.5,N/A,,Clear,170,2012-11-10 16:53:00
11:12 AM,64.4,53.6,68,29.51,10.0,South,15.0,24.2,N/A,,Clear,170,2012-11-10 17:12:00
11:32 AM,66.2,51.8,60,29.50,10.0,South,25.3,31.1,N/A,,Clear,180,2012-11-10 17:32:00
11:52 AM,68.0,51.8,56,29.49,10.0,South,20.7,28.8,N/A,,Clear,180,2012-11-10 17:52:00
12:12 PM,68.0,48.2,49,29.49,10.0,South,25.3,34.5,N/A,,Clear,180,2012-11-10 18:12:00
12:33 PM,68.0,44.6,43,29.49,10.0,South,23.0,27.6,N/A,,Clear,190,2012-11-10 18:33:00
12:52 PM,68.0,44.6,43,29.49,10.0,South,23.0,29.9,N/A,,Clear,190,2012-11-10 18:52:00
1:12 PM,68.0,42.8,40,29.49,10.0,SSW,21.9,29.9,N/A,,Clear,200,2012-11-10 19:12:00
1:33 PM,68.0,42.8,40,29.48,10.0,SSW,17.3,24.2,N/A,,Clear,210,2012-11-10 19:33:00
1:52 PM,68.0,41.0,37,29.47,10.0,SSW,18.4,24.2,N/A,,Clear,200,2012-11-10 19:52:00
2:12 PM,68.0,42.8,40,29.48,10.0,South,18.4,24.2,N/A,,Clear,190,2012-11-10 20:12:00
2:33 PM,68.0,42.8,40,29.49,10.0,SSW,18.4,27.6,N/A,,Clear,200,2012-11-10 20:33:00
2:52 PM,66.2,42.8,43,29.49,10.0,South,19.6,28.8,N/A,,Clear,190,2012-11-10 20:52:00
3:12 PM,66.2,42.8,43,29.48,10.0,South,10.4,15.0,N/A,,Clear,190,2012-11-10 21:12:00
3:33 PM,66.2,44.6,46,29.49,10.0,SW,13.8,-,N/A,,Clear,230,2012-11-10 21:33:00
3:52 PM,64.4,44.6,49,29.48,10.0,SW,9.2,-,N/A,,Clear,220,2012-11-10 21:52:00
4:12 PM,62.6,46.4,55,29.48,10.0,SW,8.1,-,N/A,,Clear,230,2012-11-10 22:12:00
4:33 PM,60.8,44.6,55,29.49,10.0,WSW,10.4,-,N/A,,Clear,250,2012-11-10 22:33:00
4:52 PM,57.2,44.6,63,29.49,10.0,WSW,8.1,-,N/A,,Clear,250,2012-11-10 22:52:00
5:12 PM,55.4,44.6,67,29.50,10.0,West,6.9,-,N/A,,Clear,260,2012-11-10 23:12:00
5:33 PM,53.6,44.6,72,29.51,10.0,West,11.5,-,N/A,,Clear,260,2012-11-10 23:33:00
5:52 PM,51.8,44.6,76,29.49,10.0,Calm,Calm,-,N/A,,Scattered Clouds,0,2012-11-10 23:52:00
6:13 PM,50.0,42.8,76,29.48,10.0,West,3.5,-,N/A,,Clear,260,2012-11-11 00:13:00
6:32 PM,48.2,42.8,82,29.47,10.0,Calm,Calm,-,N/A,,Clear,0,2012-11-11 00:32:00
6:52 PM,46.4,41.0,81,29.45,10.0,Calm,Calm,-,N/A,,Clear,0,2012-11-11 00:52:00
7:13 PM,46.4,42.8,87,29.44,10.0,East,4.6,-,N/A,,Clear,90,2012-11-11 01:13:00
7:32 PM,46.4,42.8,87,29.45,10.0,Calm,Calm,-,N/A,,Scattered Clouds,0,2012-11-11 01:32:00
7:52 PM,48.2,42.8,82,29.47,10.0,WNW,8.1,-,N/A,,Mostly Cloudy,290,2012-11-11 01:52:00
8:13 PM,50.0,44.6,82,29.48,10.0,West,10.4,-,N/A,,Overcast,280,2012-11-11 02:13:00
8:32 PM,50.0,44.6,82,29.52,10.0,West,19.6,-,N/A,,Overcast,270,2012-11-11 02:32:00
8:52 PM,48.2,46.4,93,29.50,5.0,WNW,15.0,-,0.01,Rain-Thunderstorm,Light Thunderstorms and Rain,290,2012-11-11 02:52:00
9:12 PM,48.2,46.4,93,29.54,7.0,WSW,12.7,-,0.08,Rain-Thunderstorm,Rain,250,2012-11-11 03:12:00
9:33 PM,48.2,46.4,93,29.49,4.0,Calm,Calm,-,0.22,Rain-Thunderstorm,Heavy Thunderstorms and Rain,0,2012-11-11 03:33:00
10:12 PM,48.2,48.2,100,29.47,3.0,ESE,9.2,-,0.03,Rain,Rain,120,2012-11-11 04:12:00
10:33 PM,51.8,48.2,88,29.53,5.0,SW,9.2,24.2,0.04,Rain,Light Rain,230,2012-11-11 04:33:00
11:13 PM,48.2,46.4,93,29.53,7.0,WSW,8.1,-,0.01,Rain,Light Rain,250,2012-11-11 05:13:00
11:32 PM,48.2,46.4,93,29.56,10.0,West,16.1,20.7,0.01,,Mostly Cloudy,260,2012-11-11 05:32:00
11:52 PM,46.4,44.6,93,29.56,10.0,West,16.1,-,0.01,,Drizzle,260,2012-11-11 05:52:00